Hourly Data Report for October 10, 2019

All times are specified in Local Standard Time (LST). Add 1 hour to adjust for Daylight Saving Time where and when it is observed.

WOODSTOCK NEWBRIDGE
NEW BRUNSWICK
Current Station Operator: ECCC - MSC

46°09'08.000" N
67°32'34.000" W
154.00 m
8105603
71606
EWD

Download Data

Hourly Data (October 2019)
Hourly Data Report for October 10, 2019
TIME Temp Definition
°C
Dew Point Definition
°C
Rel Hum Definition
%
Wind Dir Definition
10's deg

Wind Spd Definition
km/h
Visibility Definition
km
Stn Press Definition
kPa
Hmdx Definition


Wind Chill Definition


Weather Definition


00:00 0.8 0.2 96   0   101.33     LegendNANA
01:00 -0.1 -0.8 96   0   101.32     LegendNANA
02:00 -0.1 -0.7 96   0   101.31     LegendNANA
03:00 -0.2 -0.7 97   0   101.30     LegendNANA
04:00 -0.6 -1.2 96   0   101.33     LegendNANA
05:00 -0.8 -1.4 96   0   101.35     LegendNANA
06:00 -1.1 -1.4 98   0   101.37     LegendNANA
07:00 -0.4 -0.6 98 35 2   101.38   -1 LegendNANA
08:00 1.7 1.5 99 35 5   101.42     LegendNANA
09:00 3.6 3.1 96 34 3   101.42     LegendNANA
10:00 5.4 4.5 94 33 2   101.42     LegendNANA
11:00 9.8 5.6 75 32 5   101.44     LegendNANA
12:00 11.8 5.5 65 35 3   101.40     LegendNANA
13:00 13.1 5.4 59 34 6   101.33     LegendNANA
14:00 15.3 3.6 45 1 6   101.29     LegendNANA
15:00 15.1 5.2 52 33 7   101.25     LegendNANA
16:00 15.2 6.3 55 33 5   101.18     LegendNANA
17:00 14.2 5.4 55 31 5   101.19     LegendNANA
18:00 9.6 5.7 77   0   101.20     LegendNANA
19:00 6.5 4.9 89   0   101.20     LegendNANA
20:00 6.3 5.3 93 36 2   101.23     LegendNANA
21:00 4.3 3.5 94 34 1   101.24     LegendNANA
22:00 3.6 3.0 95   0   101.28     LegendNANA
23:00 3.0 2.2 95   0   101.29     LegendNANA

Notes on Data Quality.

Legend

  • E = Estimated
  • M = Missing
  • NA = Not Available
Date modified: